Погода в Ольбеке

Дания     57°35′34″N   10°24′45″E
темп.,
°C
ветер,
м/с
пор.,
м/с
влажн.,
%
обл.,
%
осадки,
мм/ч
давл.,
гПа
погр.,
м
17 августа, ср
ср1723:00+19юз49825 0.0 1008204
02:00+18юз4894100 0.0 1008175
05:00+17зюз3695100 0.0 1010183
08:00+19зюз46835 0.0 1011312
11:00+22юз466230 0.0 1011647
14:00+23зюз5758100 0.0 1012747
17:00+21з5767100 0.0 1012479
20:00+18зюз5875100 0.0 1012373
18 августа, чт
чт1823:00+15зюз478781 0.0 1013197
02:00+15зюз3587100 0.0 1013146
05:00+15зюз2383100 0.1 1013108
08:00+15зсз1188100 0.9 101499
11:00+16с218461 0.5 1014324
14:00+19с327663 0.6 1014634
17:00+18сз557837 0.0 1013526
20:00+17сз457829 0.1 1013403
19 августа, пт
пт1923:00+15зсз458311 0.0 1014238
02:00+14зсз35765 0.0 1014203
05:00+13з23741 0.0 1014110
08:00+15зсз34745 0.0 1014170
11:00+19с225857 0.0 1014601
14:00+20всв22595 0.0 1014731
17:00+19всв32645 0.0 1014373
20:00+18ссв22735 0.0 101388
20 августа, сб
сб2023:00+16ссв117810 0.0 101352
02:00+15юз118054 0.0 101345
05:00+15юз128423 0.0 101146
08:00+17зюз2367100 0.0 1012114
11:00+20зюз236193 0.0 1011595
14:00+19зсз457286 0.4 1012703
17:00+19з675798 0.0 10121070
20:00+17зюз59679 0.0 1013762
21 августа, вс
вс2123:00+14юз48800 0.0 1013265
02:00+14юз510860 0.0 1013304
05:00+13юз489211 0.0 1012212
08:00+15ююз510795 0.0 1012353
11:00+20юз685621 0.0 1012986
14:00+22з695023 0.1 10111204
17:00+20з795199 0.0 1012978
20:00+17з696450 0.0 1013856